This is the latest recevied weather packets stored in our database for station/object N2XGL-1. If no packets are shown the sender has not sent any weather packets the latest 10 day(s).
| Time | Temp. | Humidity | Pressure | Rain* | Wind** | Luminosity | Snow |
|---|---|---|---|---|---|---|---|
| 1778024298 | 0.56° C | 94% | 1011.7 hPa | 0 mm | - | - | - |
| 1778023705 | 0.56° C | 94% | 1011.6 hPa | 0 mm | - | - | - |
| 1778023119 | 0.56° C | 94% | 1012 hPa | 0 mm | - | - | - |
| 1778022599 | 0.56° C | 94% | 1011.6 hPa | 0.25 mm | - | - | - |
| 1778022019 | 0.56° C | 94% | 1011.8 hPa | 0.25 mm | - | - | - |
| 1778021487 | 0.56° C | 93% | 1011.8 hPa | 0.25 mm | - | - | - |
| 1778020999 | 0.56° C | 93% | 1011.6 hPa | 0.25 mm | - | - | - |
| 1778020419 | 0.56° C | 93% | 1011 hPa | 0.25 mm | - | - | - |
| 1778019872 | 0.56° C | 93% | 1010.9 hPa | 0.25 mm | - | - | - |
| 1778019374 | 0.56° C | 93% | 1011 hPa | 0.25 mm | - | - | - |
| 1778018793 | 1.11° C | 93% | 1010.7 hPa | 0.25 mm | - | - | - |
| 1778018219 | 1.11° C | 93% | 1010.6 hPa | 0.51 mm | - | - | - |
| 1778017668 | 1.67° C | 93% | 1010.4 hPa | 1.02 mm | - | - | - |
| 1778017141 | 1.67° C | 93% | 1010.2 hPa | 1.27 mm | - | - | - |
| 1778016033 | 1.67° C | 93% | 1010.1 hPa | 1.78 mm | - | - | - |
| 1778015499 | 1.67° C | 93% | 1010.4 hPa | 1.52 mm | - | - | - |
| 1778014963 | 1.11° C | 93% | 1010.4 hPa | 1.52 mm | - | - | - |
| 1778014484 | 1.11° C | 92% | 1010.2 hPa | 1.78 mm | - | - | - |
| 1778013899 | 1.11° C | 92% | 1010.2 hPa | 1.78 mm | - | - | - |
| 1778013353 | 1.67° C | 92% | 1010.4 hPa | 1.78 mm | - | - | - |
| 1778012821 | 1.67° C | 91% | 1010.5 hPa | 1.78 mm | - | - | - |
| 1778012283 | 1.67° C | 90% | 1010.5 hPa | 1.52 mm | - | - | - |
| 1778011699 | 3.33° C | 91% | 1010.6 hPa | 1.78 mm | - | - | - |
| 1778011214 | 3.33° C | 92% | 1010.4 hPa | 1.27 mm | - | - | - |
| 1778010641 | 3.89° C | 92% | 1010.2 hPa | 1.27 mm | - | - | - |
* Rain latest hour (hover to see other rain measurements)
** Current wind speed in m/s (hover to see current wind gust speed)